When you browse on this site, cookies collect data to enhance your experience and personalize the content and advertising you see.
Visit our Privacy Policy to learn more. By continuing to use the site, you agree to this use of cookies and data.
  • In Hungary
  • List of Countries
  • For 7 days
  • Water Temperature
  • Weather Map
  • News
  • Weather Widgets
  • user-avatar
    Login

    Hourly Weather Zolochevo

    Today, 25 August, Sunday

    Time Temperature Precipitation Wind Pressure Humidity
    00:00 +15°C° 0 mm 1 mps 753 mmHg 87%
    01:00 +15°C° 0 mm 1 mps 753 mmHg 89%
    02:00 +15°C° 0 mm 2 mps 753 mmHg 90%
    03:00 +14°C° 0 mm 2 mps 753 mmHg 91%
    04:00 +14°C° 0 mm 2 mps 753 mmHg 92%
    05:00 +14°C° 0 mm 2 mps 753 mmHg 93%
    06:00 +15°C° 0 mm 2 mps 754 mmHg 89%
    07:00 +17°C° 0 mm 2 mps 754 mmHg 85%
    08:00 +18°C° 0 mm 2 mps 754 mmHg 80%
    09:00 +20°C° 0 mm 2 mps 754 mmHg 74%
    10:00 +21°C° 0 mm 2 mps 754 mmHg 68%
    11:00 +23°C° 0 mm 2 mps 754 mmHg 62%
    12:00 +23°C° 0 mm 2 mps 754 mmHg 61%
    13:00 +24°C° 0 mm 2 mps 754 mmHg 59%
    14:00 +24°C° 0 mm 2 mps 754 mmHg 57%
    15:00 +24°C° 0 mm 2 mps 754 mmHg 60%
    16:00 +23°C° 0 mm 2 mps 754 mmHg 64%
    17:00 +23°C° 0 mm 2 mps 754 mmHg 67%
    18:00 +20°C° 0 mm 2 mps 754 mmHg 71%
    19:00 +19°C° 0 mm 1 mps 754 mmHg 76%
    20:00 +18°C° 0 mm 1 mps 755 mmHg 80%
    21:00 +16°C° 0 mm 1 mps 755 mmHg 82%
    22:00 +15°C° 0 mm 1 mps 755 mmHg 84%
    23:00 +15°C° 0 mm 1 mps 755 mmHg 86%

    Tomorrow, 26 August, Monday

    Time Temperature Precipitation Wind Pressure Humidity
    00:00 +14°C° 0 mm 1 mps 755 mmHg 86%
    01:00 +14°C° 0 mm 1 mps 755 mmHg 86%
    02:00 +13°C° 0 mm 1 mps 755 mmHg 85%
    03:00 +13°C° 0 mm 1 mps 755 mmHg 86%
    04:00 +13°C° 0 mm 1 mps 755 mmHg 86%
    05:00 +12°C° 0 mm 1 mps 755 mmHg 87%
    06:00 +14°C° 0 mm 1 mps 755 mmHg 82%
    07:00 +16°C° 0 mm 1 mps 755 mmHg 77%
    08:00 +19°C° 0 mm 1 mps 755 mmHg 72%
    09:00 +20°C° 0 mm 1 mps 755 mmHg 68%
    10:00 +22°C° 0 mm 1 mps 755 mmHg 63%
    11:00 +23°C° 0 mm 1 mps 755 mmHg 59%
    12:00 +24°C° 0 mm 1 mps 755 mmHg 57%
    13:00 +24°C° 0 mm 1 mps 755 mmHg 54%
    14:00 +24°C° 0 mm 1 mps 754 mmHg 52%
    15:00 +24°C° 0 mm 1 mps 754 mmHg 55%
    16:00 +24°C° 0 mm 1 mps 753 mmHg 59%
    17:00 +24°C° 0 mm 1 mps 753 mmHg 62%
    18:00 +22°C° 0 mm 1 mps 753 mmHg 68%
    19:00 +18°C° 0 mm 0 mps 753 mmHg 73%
    20:00 +16°C° 0 mm 0 mps 753 mmHg 78%
    21:00 +16°C° 0 mm 1 mps 753 mmHg 78%
    22:00 +16°C° 0 mm 1 mps 753 mmHg 79%
    23:00 +16°C° 0 mm 1 mps 753 mmHg 80%

    Day after tomorrow, 27 August, Tuesday

    Time Temperature Precipitation Wind Pressure Humidity
    00:00 +15°C° 0 mm 1 mps 753 mmHg 80%
    01:00 +15°C° 0 mm 1 mps 752 mmHg 81%
    02:00 +15°C° 0 mm 2 mps 752 mmHg 81%
    03:00 +15°C° 0 mm 2 mps 752 mmHg 82%
    04:00 +15°C° 0 mm 2 mps 752 mmHg 83%
    05:00 +15°C° 0 mm 2 mps 752 mmHg 84%
    06:00 +16°C° 0 mm 2 mps 752 mmHg 83%
    07:00 +18°C° 0 mm 3 mps 752 mmHg 82%
    08:00 +19°C° 0 mm 3 mps 752 mmHg 80%
    09:00 +20°C° 0 mm 3 mps 752 mmHg 77%
    10:00 +22°C° 0 mm 3 mps 752 mmHg 73%
    11:00 +23°C° 0 mm 4 mps 752 mmHg 70%
    12:00 +23°C° 0 mm 4 mps 752 mmHg 67%
    13:00 +25°C° 0 mm 4 mps 752 mmHg 65%
    14:00 +25°C° 0 mm 4 mps 751 mmHg 62%
    15:00 +25°C° 0 mm 4 mps 751 mmHg 66%
    16:00 +23°C° 0 mm 4 mps 751 mmHg 69%
    17:00 +24°C° 0 mm 3 mps 751 mmHg 73%
    18:00 +21°C° 0 mm 3 mps 751 mmHg 77%
    19:00 +19°C° 0 mm 3 mps 751 mmHg 82%
    20:00 +18°C° 0 mm 3 mps 751 mmHg 87%
    21:00 +17°C° 0 mm 3 mps 751 mmHg 88%
    22:00 +16°C° 0 mm 3 mps 752 mmHg 89%
    23:00 +16°C° 0 mm 2 mps 752 mmHg 91%

    28 August, Wednesday

    Time Temperature Precipitation Wind Pressure Humidity
    00:00 +15°C° 0 mm 2 mps 752 mmHg 90%
    01:00 +14°C° 0 mm 2 mps 752 mmHg 89%
    02:00 +13°C° 0 mm 2 mps 752 mmHg 89%
    03:00 +13°C° 0 mm 2 mps 752 mmHg 89%
    04:00 +12°C° 0 mm 2 mps 752 mmHg 89%
    05:00 +12°C° 0 mm 2 mps 752 mmHg 89%
    06:00 +12°C° 0 mm 3 mps 752 mmHg 85%
    07:00 +14°C° 0 mm 3 mps 753 mmHg 82%
    08:00 +16°C° 0 mm 3 mps 753 mmHg 78%
    09:00 +17°C° 0 mm 3 mps 753 mmHg 74%
    10:00 +19°C° 0 mm 4 mps 753 mmHg 70%
    11:00 +20°C° 0 mm 4 mps 753 mmHg 66%
    12:00 +20°C° 0 mm 4 mps 753 mmHg 63%
    13:00 +20°C° 0 mm 4 mps 753 mmHg 61%
    14:00 +20°C° 0 mm 4 mps 753 mmHg 58%
    15:00 +20°C° 0 mm 4 mps 753 mmHg 59%
    16:00 +19°C° 0 mm 3 mps 752 mmHg 61%
    17:00 +18°C° 0 mm 3 mps 752 mmHg 62%
    18:00 +16°C° 0 mm 3 mps 753 mmHg 64%
    19:00 +13°C° 0 mm 3 mps 753 mmHg 65%
    20:00 +11°C° 0 mm 3 mps 753 mmHg 66%
    21:00 +10°C° 0 mm 3 mps 753 mmHg 69%
    22:00 +10°C° 0 mm 3 mps 753 mmHg 71%
    23:00 +9°C° 0 mm 3 mps 754 mmHg 74%

    29 August, Thursday

    Time Temperature Precipitation Wind Pressure Humidity
    00:00 +8°C° 0 mm 3 mps 754 mmHg 77%
    01:00 +8°C° 0 mm 2 mps 754 mmHg 79%
    02:00 +7°C° 0 mm 2 mps 754 mmHg 82%
    03:00 +7°C° 0 mm 2 mps 754 mmHg 84%
    04:00 +7°C° 0 mm 2 mps 754 mmHg 87%
    05:00 +6°C° 0 mm 2 mps 754 mmHg 89%
    06:00 +8°C° 0 mm 2 mps 754 mmHg 84%
    07:00 +10°C° 0 mm 2 mps 755 mmHg 79%
    08:00 +11°C° 0 mm 3 mps 755 mmHg 74%
    09:00 +13°C° 0 mm 3 mps 755 mmHg 68%
    10:00 +14°C° 0 mm 3 mps 755 mmHg 63%
    11:00 +17°C° 0 mm 3 mps 755 mmHg 57%
    12:00 +18°C° 0 mm 3 mps 754 mmHg 55%
    13:00 +18°C° 0 mm 3 mps 754 mmHg 53%
    14:00 +19°C° 0 mm 3 mps 754 mmHg 50%
    15:00 +19°C° 0 mm 2 mps 754 mmHg 54%
    16:00 +18°C° 0 mm 2 mps 753 mmHg 58%
    17:00 +18°C° 0 mm 2 mps 753 mmHg 62%
    18:00 +16°C° 0 mm 2 mps 753 mmHg 66%
    19:00 +14°C° 0 mm 2 mps 753 mmHg 69%
    20:00 +13°C° 0 mm 2 mps 753 mmHg 73%
    21:00 +12°C° 0 mm 2 mps 753 mmHg 74%
    22:00 +12°C° 0 mm 2 mps 753 mmHg 76%
    23:00 +10°C° 0 mm 2 mps 753 mmHg 77%

    30 August, Friday

    Time Temperature Precipitation Wind Pressure Humidity
    00:00 +10°C° 0 mm 2 mps 753 mmHg 79%
    01:00 +9°C° 0 mm 2 mps 753 mmHg 81%
    02:00 +9°C° 0 mm 2 mps 753 mmHg 83%
    03:00 +9°C° 0 mm 2 mps 753 mmHg 85%
    04:00 +8°C° 0 mm 2 mps 753 mmHg 86%
    05:00 +9°C° 0 mm 1 mps 753 mmHg 87%
    06:00 +10°C° 0 mm 2 mps 753 mmHg 81%
    07:00 +13°C° 0 mm 2 mps 753 mmHg 76%
    08:00 +14°C° 0 mm 2 mps 753 mmHg 70%
    09:00 +16°C° 0 mm 2 mps 753 mmHg 66%
    10:00 +17°C° 0 mm 2 mps 753 mmHg 62%
    11:00 +19°C° 0 mm 2 mps 753 mmHg 58%
    12:00 +19°C° 0 mm 3 mps 753 mmHg 57%
    13:00 +20°C° 0 mm 3 mps 753 mmHg 57%
    14:00 +20°C° 0 mm 3 mps 752 mmHg 56%
    15:00 +20°C° 0 mm 3 mps 752 mmHg 60%
    16:00 +20°C° 0 mm 2 mps 752 mmHg 63%
    17:00 +19°C° 0 mm 2 mps 752 mmHg 67%
    18:00 +18°C° 0 mm 2 mps 752 mmHg 70%
    19:00 +16°C° 0 mm 2 mps 751 mmHg 74%
    20:00 +14°C° 0 mm 2 mps 751 mmHg 77%
    21:00 +14°C° 0 mm 2 mps 751 mmHg 79%
    22:00 +13°C° 0 mm 2 mps 751 mmHg 81%
    23:00 +13°C° 0 mm 2 mps 751 mmHg 82%
    Show more